Location: Newark
(45.7167°N, 7.8833°E)
Time: 10:29:56
(UTC+00:00)

ISS - Pass Details

Date: 04 April 2020
Orbit: 417 x 419 km, 51.6° (Epoch: 03 June)

Event Time Altitude Azimuth Distance (km) Brightness Sun altitude
Rises 19:44:32 0° 289° (WNW) 2,365 1.7 -17.8°
Reaches altitude 10° 19:47:01 10° 272° (W) 1,496 0.0 -18.1°
Maximum altitude 19:49:29 19° 224° (SW) 1,053 -1.6 -18.5°
Enters shadow 19:50:27 17° 201° (SSW) 1,130 -1.7 -18.7°
